Time,TemperatureF,DewpointF,PressureIn,WindDirection,WindDirectionDegrees,WindSpeedMPH,WindSpeedGustMPH,Humidity,HourlyPrecipIn,Conditions,Clouds,dailyrainin,SoftwareType,DateUTC
2013-11-29 00:01:00,24.8,12.9,29.85,WSW,245,0.0,1.0,60,0.00,,---,0.00,VWS V14.00,2013-11-29 06:01:00,
2013-11-29 00:06:00,24.8,12.9,29.85,WSW,245,0.0,1.0,60,0.00,,---,0.00,VWS V14.00,2013-11-29 06:06:00,
2013-11-29 00:11:00,24.6,12.7,29.85,WSW,245,0.0,1.0,60,0.00,,---,0.00,VWS V14.00,2013-11-29 06:11:00,
2013-11-29 00:16:00,24.4,12.6,29.85,WSW,245,0.0,1.0,60,0.00,,---,0.00,VWS V14.00,2013-11-29 06:16:00,
2013-11-29 00:21:00,24.4,12.6,29.85,WSW,245,0.0,1.0,60,0.00,,---,0.00,VWS V14.00,2013-11-29 06:21:00,
2013-11-29 00:26:00,24.4,12.6,29.85,WSW,245,0.0,1.0,60,0.00,,---,0.00,VWS V14.00,2013-11-29 06:26:00,
2013-11-29 00:31:00,24.3,12.8,29.85,WSW,245,0.0,1.0,61,0.00,,---,0.00,VWS V14.00,2013-11-29 06:31:00,
2013-11-29 00:36:00,24.3,12.8,29.85,WSW,245,0.0,1.0,61,0.00,,---,0.00,VWS V14.00,2013-11-29 06:36:00,
2013-11-29 00:41:00,24.3,12.8,29.85,WSW,245,0.0,1.0,61,0.00,,---,0.00,VWS V14.00,2013-11-29 06:41:00,
2013-11-29 00:46:00,24.1,12.6,29.85,WSW,245,0.0,1.0,61,0.00,,---,0.00,VWS V14.00,2013-11-29 06:46:00,
2013-11-29 00:51:00,24.3,13.1,29.85,WSW,245,0.0,1.0,62,0.00,,---,0.00,VWS V14.00,2013-11-29 06:51:00,
2013-11-29 00:56:00,24.3,13.1,29.85,WSW,245,0.0,1.0,62,0.00,,---,0.00,VWS V14.00,2013-11-29 06:56:00,
2013-11-29 01:01:00,24.1,13.0,29.85,WSW,245,0.0,1.0,62,0.00,,---,0.00,VWS V14.00,2013-11-29 07:01:00,
2013-11-29 01:06:00,24.1,13.0,29.85,WSW,245,0.0,1.0,62,0.00,,---,0.00,VWS V14.00,2013-11-29 07:06:00,
2013-11-29 01:11:00,24.1,13.0,29.85,WSW,245,0.0,1.0,62,0.00,,---,0.00,VWS V14.00,2013-11-29 07:11:00,
2013-11-29 01:16:00,24.1,13.0,29.85,WSW,245,0.0,1.0,62,0.00,,---,0.00,VWS V14.00,2013-11-29 07:16:00,
2013-11-29 01:21:00,23.7,12.6,29.85,WSW,245,0.0,1.0,62,0.00,,---,0.00,VWS V14.00,2013-11-29 07:21:00,
2013-11-29 01:26:00,23.7,12.6,29.85,WSW,245,0.0,1.0,62,0.00,,---,0.00,VWS V14.00,2013-11-29 07:26:00,
2013-11-29 01:31:00,23.7,12.6,29.85,WSW,245,0.0,1.0,62,0.00,,---,0.00,VWS V14.00,2013-11-29 07:31:00,
2013-11-29 01:36:00,23.5,12.8,29.85,WSW,245,0.0,1.0,63,0.00,,---,0.00,VWS V14.00,2013-11-29 07:36:00,
2013-11-29 01:41:00,23.5,12.8,29.85,WSW,245,0.0,1.0,63,0.00,,---,0.00,VWS V14.00,2013-11-29 07:41:00,
2013-11-29 01:46:00,23.5,12.8,29.85,WSW,245,0.0,1.0,63,0.00,,---,0.00,VWS V14.00,2013-11-29 07:46:00,
2013-11-29 01:51:00,23.5,12.8,29.85,WSW,245,0.0,1.0,63,0.00,,---,0.00,VWS V14.00,2013-11-29 07:51:00,
2013-11-29 01:56:00,23.4,12.6,29.85,WSW,245,0.0,1.0,63,0.00,,---,0.00,VWS V14.00,2013-11-29 07:56:00,
2013-11-29 02:01:00,23.4,12.6,29.85,WSW,245,0.0,1.0,63,0.00,,---,0.00,VWS V14.00,2013-11-29 08:01:00,
2013-11-29 02:06:00,23.4,12.6,29.85,WSW,245,0.0,1.0,63,0.00,,---,0.00,VWS V14.00,2013-11-29 08:06:00,
2013-11-29 02:11:00,23.4,13.0,29.85,WSW,245,0.0,1.0,64,0.00,,---,0.00,VWS V14.00,2013-11-29 08:11:00,
2013-11-29 02:16:00,23.4,13.0,29.85,WSW,245,0.0,1.0,64,0.00,,---,0.00,VWS V14.00,2013-11-29 08:16:00,
2013-11-29 02:21:00,23.4,13.0,29.85,WSW,245,0.0,1.0,64,0.00,,---,0.00,VWS V14.00,2013-11-29 08:21:00,
2013-11-29 02:26:00,23.4,13.0,29.85,WSW,245,0.0,1.0,64,0.00,,---,0.00,VWS V14.00,2013-11-29 08:26:00,
2013-11-29 02:31:00,23.5,13.2,29.85,WSW,245,0.0,1.0,64,0.00,,---,0.00,VWS V14.00,2013-11-29 08:31:00,
2013-11-29 02:36:00,23.5,13.2,29.85,WSW,245,0.0,1.0,64,0.00,,---,0.00,VWS V14.00,2013-11-29 08:36:00,
2013-11-29 02:41:00,23.4,13.4,29.85,WSW,245,0.0,1.0,65,0.00,,---,0.00,VWS V14.00,2013-11-29 08:41:00,
2013-11-29 02:46:00,23.4,13.4,29.85,WSW,245,0.0,1.0,65,0.00,,---,0.00,VWS V14.00,2013-11-29 08:46:00,
2013-11-29 02:51:00,23.4,13.4,29.85,WSW,245,0.0,1.0,65,0.00,,---,0.00,VWS V14.00,2013-11-29 08:51:00,
2013-11-29 02:56:00,23.2,13.2,29.85,WSW,245,0.0,1.0,65,0.00,,---,0.00,VWS V14.00,2013-11-29 08:56:00,
2013-11-29 03:01:00,23.2,13.2,29.85,WSW,245,0.0,1.0,65,0.00,,---,0.00,VWS V14.00,2013-11-29 09:01:00,
2013-11-29 03:06:00,23.2,13.2,29.85,WSW,245,0.0,1.0,65,0.00,,---,0.00,VWS V14.00,2013-11-29 09:06:00,
2013-11-29 03:11:00,23.2,13.2,29.85,WSW,245,0.0,1.0,65,0.00,,---,0.00,VWS V14.00,2013-11-29 09:11:00,
2013-11-29 03:16:00,23.4,13.4,29.85,WSW,245,0.0,1.0,65,0.00,,---,0.00,VWS V14.00,2013-11-29 09:16:00,
2013-11-29 03:21:00,23.2,13.5,29.85,WSW,245,0.0,1.0,66,0.00,,---,0.00,VWS V14.00,2013-11-29 09:21:00,
2013-11-29 03:26:00,23.2,13.5,29.85,WSW,245,0.0,1.0,66,0.00,,---,0.00,VWS V14.00,2013-11-29 09:26:00,
2013-11-29 03:31:00,23.2,13.5,29.85,WSW,245,0.0,1.0,66,0.00,,---,0.00,VWS V14.00,2013-11-29 09:31:00,
2013-11-29 03:36:00,23.2,13.5,29.85,WSW,245,0.0,1.0,66,0.00,,---,0.00,VWS V14.00,2013-11-29 09:36:00,
2013-11-29 03:41:00,23.2,13.5,29.85,WSW,245,0.0,1.0,66,0.00,,---,0.00,VWS V14.00,2013-11-29 09:41:00,
2013-11-29 03:46:00,23.2,13.5,29.85,WSW,245,0.0,1.0,66,0.00,,---,0.00,VWS V14.00,2013-11-29 09:46:00,
2013-11-29 03:51:00,23.0,13.7,29.88,WSW,245,0.0,1.0,67,0.00,,---,0.00,VWS V14.00,2013-11-29 09:51:00,
2013-11-29 03:56:00,23.0,13.7,29.88,WSW,245,0.0,1.0,67,0.00,,---,0.00,VWS V14.00,2013-11-29 09:56:00,
2013-11-29 04:01:00,22.8,13.5,29.88,WSW,245,0.0,1.0,67,0.00,,---,0.00,VWS V14.00,2013-11-29 10:01:00,
2013-11-29 04:06:00,22.8,13.5,29.88,WSW,245,0.0,1.0,67,0.00,,---,0.00,VWS V14.00,2013-11-29 10:06:00,
2013-11-29 04:11:00,22.8,13.5,29.88,WSW,245,0.0,1.0,67,0.00,,---,0.00,VWS V14.00,2013-11-29 10:11:00,
2013-11-29 04:16:00,22.8,13.5,29.88,WSW,245,0.0,1.0,67,0.00,,---,0.00,VWS V14.00,2013-11-29 10:16:00,
2013-11-29 04:21:00,23.0,14.0,29.88,WSW,245,0.0,1.0,68,0.00,,---,0.00,VWS V14.00,2013-11-29 10:21:00,
2013-11-29 04:26:00,23.2,13.9,29.88,WSW,245,0.0,1.0,67,0.00,,---,0.00,VWS V14.00,2013-11-29 10:26:00,
2013-11-29 04:31:00,23.2,13.9,29.88,WSW,245,0.0,1.0,67,0.00,,---,0.00,VWS V14.00,2013-11-29 10:31:00,
2013-11-29 04:36:00,23.0,14.0,29.88,WSW,245,0.0,1.0,68,0.00,,---,0.00,VWS V14.00,2013-11-29 10:36:00,
2013-11-29 04:41:00,22.8,13.9,29.88,WSW,245,0.0,1.0,68,0.00,,---,0.00,VWS V14.00,2013-11-29 10:41:00,
2013-11-29 04:46:00,22.8,13.9,29.88,WSW,245,0.0,1.0,68,0.00,,---,0.00,VWS V14.00,2013-11-29 10:46:00,
2013-11-29 04:51:00,22.6,13.7,29.88,WSW,245,0.0,1.0,68,0.00,,---,0.00,VWS V14.00,2013-11-29 10:51:00,
2013-11-29 04:56:00,22.6,13.7,29.88,WSW,245,0.0,1.0,68,0.00,,---,0.00,VWS V14.00,2013-11-29 10:56:00,
2013-11-29 05:01:00,22.6,13.7,29.88,WSW,245,0.0,1.0,68,0.00,,---,0.00,VWS V14.00,2013-11-29 11:01:00,
2013-11-29 05:06:00,22.5,13.5,29.88,WSW,245,0.0,1.0,68,0.00,,---,0.00,VWS V14.00,2013-11-29 11:06:00,
2013-11-29 05:11:00,22.3,13.3,29.88,WSW,245,0.0,1.0,68,0.00,,---,0.00,VWS V14.00,2013-11-29 11:11:00,
2013-11-29 05:16:00,22.3,13.3,29.88,WSW,245,0.0,1.0,68,0.00,,---,0.00,VWS V14.00,2013-11-29 11:16:00,
2013-11-29 05:21:00,22.3,13.3,29.88,WSW,245,0.0,1.0,68,0.00,,---,0.00,VWS V14.00,2013-11-29 11:21:00,
2013-11-29 05:26:00,22.3,13.7,29.88,WSW,245,0.0,1.0,69,0.00,,---,0.00,VWS V14.00,2013-11-29 11:26:00,
2013-11-29 05:31:00,22.3,13.7,29.88,WSW,245,0.0,1.0,69,0.00,,---,0.00,VWS V14.00,2013-11-29 11:31:00,
2013-11-29 05:36:00,22.3,13.7,29.88,WSW,245,0.0,1.0,69,0.00,,---,0.00,VWS V14.00,2013-11-29 11:36:00,
2013-11-29 05:41:00,22.3,13.7,29.88,WSW,245,0.0,1.0,69,0.00,,---,0.00,VWS V14.00,2013-11-29 11:41:00,
2013-11-29 05:46:00,22.5,13.8,29.88,WSW,245,0.0,1.0,69,0.00,,---,0.00,VWS V14.00,2013-11-29 11:46:00,
2013-11-29 05:51:00,22.6,14.0,29.91,WSW,245,0.0,1.0,69,0.00,,---,0.00,VWS V14.00,2013-11-29 11:51:00,
2013-11-29 05:56:00,22.8,14.5,29.91,WSW,245,0.0,1.0,70,0.00,,---,0.00,VWS V14.00,2013-11-29 11:56:00,
2013-11-29 06:01:00,22.8,14.5,29.91,WSW,245,0.0,1.0,70,0.00,,---,0.00,VWS V14.00,2013-11-29 12:01:00,
2013-11-29 06:06:00,22.8,14.5,29.91,WSW,245,0.0,1.0,70,0.00,,---,0.00,VWS V14.00,2013-11-29 12:06:00,
2013-11-29 06:11:00,22.8,14.5,29.91,WSW,245,0.0,1.0,70,0.00,,---,0.00,VWS V14.00,2013-11-29 12:11:00,
2013-11-29 06:16:00,22.8,14.5,29.91,WSW,245,0.0,1.0,70,0.00,,---,0.00,VWS V14.00,2013-11-29 12:16:00,
2013-11-29 06:21:00,22.8,14.5,29.91,WSW,245,0.0,1.0,70,0.00,,---,0.00,VWS V14.00,2013-11-29 12:21:00,
2013-11-29 06:26:00,22.8,14.5,29.91,WSW,245,0.0,1.0,70,0.00,,---,0.00,VWS V14.00,2013-11-29 12:26:00,
2013-11-29 06:31:00,22.6,14.7,29.91,WSW,245,0.0,1.0,71,0.00,,---,0.00,VWS V14.00,2013-11-29 12:31:00,
2013-11-29 06:36:00,22.6,14.7,29.91,WSW,245,0.0,1.0,71,0.00,,---,0.00,VWS V14.00,2013-11-29 12:36:00,
2013-11-29 06:41:00,22.6,14.7,29.91,WSW,245,0.0,1.0,71,0.00,,---,0.00,VWS V14.00,2013-11-29 12:41:00,
2013-11-29 06:46:00,22.6,14.7,29.91,WSW,245,0.0,1.0,71,0.00,,---,0.00,VWS V14.00,2013-11-29 12:46:00,
2013-11-29 06:51:00,22.5,14.5,29.91,WSW,245,0.0,1.0,71,0.00,,---,0.00,VWS V14.00,2013-11-29 12:51:00,
2013-11-29 06:56:00,22.3,14.3,29.91,WSW,245,0.0,1.0,71,0.00,,---,0.00,VWS V14.00,2013-11-29 12:56:00,
2013-11-29 07:01:00,22.3,14.3,29.91,WSW,245,0.0,1.0,71,0.00,,---,0.00,VWS V14.00,2013-11-29 13:01:00,
2013-11-29 07:06:00,22.3,14.3,29.91,WSW,245,0.0,1.0,71,0.00,,---,0.00,VWS V14.00,2013-11-29 13:06:00,
2013-11-29 07:11:00,22.6,14.7,29.91,WSW,245,0.0,1.0,71,0.00,,---,0.00,VWS V14.00,2013-11-29 13:11:00,
2013-11-29 07:16:00,22.8,15.2,29.91,WSW,245,0.0,1.0,72,0.00,,---,0.00,VWS V14.00,2013-11-29 13:16:00,
2013-11-29 07:21:00,23.2,15.2,29.91,WSW,245,0.0,1.0,71,0.00,,---,0.00,VWS V14.00,2013-11-29 13:21:00,
2013-11-29 07:26:00,23.5,15.9,29.91,WSW,245,0.0,1.0,72,0.00,,---,0.00,VWS V14.00,2013-11-29 13:26:00,
2013-11-29 07:31:00,24.1,16.4,29.91,WSW,245,0.0,1.0,72,0.00,,---,0.00,VWS V14.00,2013-11-29 13:31:00,
2013-11-29 07:36:00,24.4,16.7,29.91,WSW,245,0.0,1.0,72,0.00,,---,0.00,VWS V14.00,2013-11-29 13:36:00,
2013-11-29 07:41:00,25.0,17.2,29.91,WSW,245,0.0,1.0,72,0.00,,---,0.00,VWS V14.00,2013-11-29 13:41:00,
2013-11-29 07:46:00,25.5,18.1,29.91,WSW,245,0.0,1.0,73,0.00,,---,0.00,VWS V14.00,2013-11-29 13:46:00,
2013-11-29 07:51:00,26.2,19.1,29.91,WSW,245,0.0,1.0,74,0.00,,---,0.00,VWS V14.00,2013-11-29 13:51:00,
2013-11-29 07:56:00,26.6,19.4,29.94,WSW,245,0.0,1.0,74,0.00,,---,0.00,VWS V14.00,2013-11-29 13:56:00,
2013-11-29 08:01:00,27.7,20.5,29.94,WSW,245,0.0,1.0,74,0.00,,---,0.00,VWS V14.00,2013-11-29 14:01:00,
2013-11-29 08:06:00,28.4,21.5,29.94,WSW,245,0.0,1.0,75,0.00,,---,0.00,VWS V14.00,2013-11-29 14:06:00,
2013-11-29 08:11:00,29.3,22.4,29.94,WSW,245,0.0,1.0,75,0.00,,---,0.00,VWS V14.00,2013-11-29 14:11:00,
2013-11-29 08:16:00,30.0,23.1,29.94,SSE,152,4.0,5.8,75,0.00,,---,0.00,VWS V14.00,2013-11-29 14:16:00,
2013-11-29 08:21:00,31.3,24.3,29.94,SE,128,5.4,7.4,75,0.00,,---,0.00,VWS V14.00,2013-11-29 14:21:00,
2013-11-29 08:26:00,32.2,24.8,29.94,SE,124,4.0,5.8,74,0.00,,---,0.00,VWS V14.00,2013-11-29 14:26:00,
2013-11-29 08:31:00,32.5,24.2,29.94,SE,124,4.0,5.8,71,0.00,,---,0.00,VWS V14.00,2013-11-29 14:31:00,
2013-11-29 08:36:00,32.7,23.7,29.94,SE,125,5.4,7.4,69,0.00,,---,0.00,VWS V14.00,2013-11-29 14:36:00,
2013-11-29 08:41:00,33.4,24.0,29.94,ESE,117,4.0,8.2,68,0.00,,---,0.00,VWS V14.00,2013-11-29 14:41:00,
2013-11-29 08:46:00,33.8,24.0,29.94,SE,137,4.0,5.8,67,0.00,,---,0.00,VWS V14.00,2013-11-29 14:46:00,
2013-11-29 08:51:00,34.0,23.8,29.94,East,94,5.4,7.4,66,0.00,,---,0.00,VWS V14.00,2013-11-29 14:51:00,
2013-11-29 08:56:00,34.7,24.5,29.94,ESE,123,5.4,7.4,66,0.00,,---,0.00,VWS V14.00,2013-11-29 14:56:00,
2013-11-29 09:01:00,35.4,24.1,29.94,SE,145,4.0,5.8,63,0.00,,---,0.00,VWS V14.00,2013-11-29 15:01:00,
2013-11-29 09:06:00,35.8,24.4,29.94,SE,124,4.7,6.6,63,0.00,,---,0.00,VWS V14.00,2013-11-29 15:06:00,
2013-11-29 09:11:00,36.3,24.6,29.94,East,100,8.1,10.7,62,0.00,,---,0.00,VWS V14.00,2013-11-29 15:11:00,
2013-11-29 09:16:00,36.7,24.5,29.94,SE,124,8.1,10.7,61,0.00,,---,0.00,VWS V14.00,2013-11-29 15:16:00,
2013-11-29 09:21:00,36.7,24.5,29.94,ESE,104,9.4,12.3,61,0.00,,---,0.00,VWS V14.00,2013-11-29 15:21:00,
2013-11-29 09:26:00,37.6,25.4,29.94,East,95,4.0,10.7,61,0.00,,---,0.00,VWS V14.00,2013-11-29 15:26:00,
2013-11-29 09:31:00,37.9,25.3,29.94,ENE,63,4.7,6.6,60,0.00,,---,0.00,VWS V14.00,2013-11-29 15:31:00,
2013-11-29 09:36:00,37.9,25.3,29.94,ESE,106,5.4,10.7,60,0.00,,---,0.00,VWS V14.00,2013-11-29 15:36:00,
2013-11-29 09:41:00,38.5,25.4,29.94,East,99,6.0,8.2,59,0.00,,---,0.00,VWS V14.00,2013-11-29 15:41:00,
2013-11-29 09:46:00,38.7,25.6,29.94,SE,128,8.7,12.3,59,0.00,,---,0.00,VWS V14.00,2013-11-29 15:46:00,
2013-11-29 09:51:00,39.2,25.3,29.94,SE,131,8.1,10.7,57,0.00,,---,0.00,VWS V14.00,2013-11-29 15:51:00,
2013-11-29 09:56:00,39.7,26.2,29.94,East,91,9.4,12.3,58,0.00,,---,0.00,VWS V14.00,2013-11-29 15:56:00,
2013-11-29 10:01:00,39.9,25.5,29.94,SSE,157,8.1,10.7,56,0.00,,---,0.00,VWS V14.00,2013-11-29 16:01:00,
2013-11-29 10:06:00,40.3,25.9,29.94,ESE,120,5.4,10.7,56,0.00,,---,0.00,VWS V14.00,2013-11-29 16:06:00,
2013-11-29 10:12:00,40.6,25.3,29.94,ESE,122,9.4,12.3,54,0.00,,---,0.00,VWS V14.00,2013-11-29 16:12:00,
2013-11-29 10:17:00,40.8,24.6,29.94,ESE,123,8.7,12.3,52,0.00,,---,0.00,VWS V14.00,2013-11-29 16:17:00,
2013-11-29 10:21:00,41.0,24.7,29.94,SSE,149,8.7,14.7,52,0.00,,---,0.00,VWS V14.00,2013-11-29 16:21:00,
2013-11-29 10:27:00,41.2,24.4,29.94,SE,144,8.1,10.7,51,0.00,,---,0.00,VWS V14.00,2013-11-29 16:27:00,
2013-11-29 10:32:00,41.7,24.9,29.94,SE,142,7.4,9.9,51,0.00,,---,0.00,VWS V14.00,2013-11-29 16:32:00,
2013-11-29 10:37:00,41.7,24.5,29.94,ESE,105,6.0,8.2,50,0.00,,---,0.00,VWS V14.00,2013-11-29 16:37:00,
2013-11-29 10:42:00,42.3,25.0,29.94,ESE,103,4.7,7.4,50,0.00,,---,0.00,VWS V14.00,2013-11-29 16:42:00,
2013-11-29 10:47:00,42.3,25.0,29.94,SSE,151,8.7,12.3,50,0.00,,---,0.00,VWS V14.00,2013-11-29 16:47:00,
2013-11-29 10:52:00,43.3,25.5,29.91,SSE,163,6.7,10.7,49,0.00,,---,0.00,VWS V14.00,2013-11-29 16:52:00,
2013-11-29 10:57:00,43.7,26.3,29.91,SSE,157,4.7,11.5,50,0.00,,---,0.00,VWS V14.00,2013-11-29 16:57:00,
2013-11-29 11:02:00,43.9,24.5,29.91,SE,137,6.0,11.5,46,0.00,,---,0.00,VWS V14.00,2013-11-29 17:02:00,
2013-11-29 11:07:00,44.2,25.3,29.91,SE,139,8.7,11.5,47,0.00,,---,0.00,VWS V14.00,2013-11-29 17:07:00,
2013-11-29 11:12:00,45.0,26.0,29.91,ESE,116,8.1,10.7,47,0.00,,---,0.00,VWS V14.00,2013-11-29 17:12:00,
2013-11-29 11:17:00,45.3,25.8,29.91,SE,138,6.0,9.9,46,0.00,,---,0.00,VWS V14.00,2013-11-29 17:17:00,
2013-11-29 11:22:00,45.9,25.7,29.91,SE,126,8.7,11.5,45,0.00,,---,0.00,VWS V14.00,2013-11-29 17:22:00,
2013-11-29 11:27:00,46.0,25.9,29.91,ESE,119,8.1,10.7,45,0.00,,---,0.00,VWS V14.00,2013-11-29 17:27:00,
2013-11-29 11:31:00,46.2,25.5,29.91,SE,134,5.4,10.7,44,0.00,,---,0.00,VWS V14.00,2013-11-29 17:31:00,
2013-11-29 11:37:00,46.4,25.1,29.91,East,101,8.1,10.7,43,0.00,,---,0.00,VWS V14.00,2013-11-29 17:37:00,
2013-11-29 11:42:00,46.8,24.9,29.91,SE,144,4.7,7.4,42,0.00,,---,0.00,VWS V14.00,2013-11-29 17:42:00,
2013-11-29 11:47:00,46.9,25.6,29.91,SE,142,9.4,12.3,43,0.00,,---,0.00,VWS V14.00,2013-11-29 17:47:00,
2013-11-29 11:52:00,47.5,25.5,29.91,SSE,149,6.0,8.2,42,0.00,,---,0.00,VWS V14.00,2013-11-29 17:52:00,
2013-11-29 11:57:00,47.8,25.9,29.91,SSE,158,4.0,5.8,42,0.00,,---,0.00,VWS V14.00,2013-11-29 17:57:00,
2013-11-29 12:02:00,48.2,25.6,29.91,South,182,4.0,8.2,41,0.00,,---,0.00,VWS V14.00,2013-11-29 18:02:00,
2013-11-29 12:07:00,48.4,25.2,29.91,ESE,117,8.1,10.7,40,0.00,,---,0.00,VWS V14.00,2013-11-29 18:07:00,
2013-11-29 12:12:00,48.6,25.4,29.91,SE,130,4.0,5.8,40,0.00,,---,0.00,VWS V14.00,2013-11-29 18:12:00,
2013-11-29 12:17:00,48.7,24.9,29.88,SE,135,7.4,9.9,39,0.00,,---,0.00,VWS V14.00,2013-11-29 18:17:00,
2013-11-29 12:22:00,48.7,24.9,29.88,SE,128,6.0,8.2,39,0.00,,---,0.00,VWS V14.00,2013-11-29 18:22:00,
2013-11-29 12:27:00,48.9,25.7,29.88,SE,137,4.0,5.8,40,0.00,,---,0.00,VWS V14.00,2013-11-29 18:27:00,
2013-11-29 12:32:00,49.1,25.2,29.88,South,178,8.7,11.5,39,0.00,,---,0.00,VWS V14.00,2013-11-29 18:32:00,
2013-11-29 12:37:00,49.3,25.4,29.88,ESE,118,6.0,8.2,39,0.00,,---,0.00,VWS V14.00,2013-11-29 18:37:00,
2013-11-29 12:42:00,49.3,25.4,29.88,SE,128,4.0,8.2,39,0.00,,---,0.00,VWS V14.00,2013-11-29 18:42:00,
2013-11-29 12:47:00,50.0,26.0,29.88,SSE,168,5.4,8.2,39,0.00,,---,0.00,VWS V14.00,2013-11-29 18:47:00,
2013-11-29 12:52:00,50.0,26.0,29.88,South,171,4.7,8.2,39,0.00,,---,0.00,VWS V14.00,2013-11-29 18:52:00,
2013-11-29 12:57:00,50.4,26.4,29.88,SE,132,0.0,5.8,39,0.00,,---,0.00,VWS V14.00,2013-11-29 18:57:00,
2013-11-29 13:02:00,50.4,26.4,29.88,South,173,8.7,11.5,39,0.00,,---,0.00,VWS V14.00,2013-11-29 19:02:00,
2013-11-29 13:07:00,50.7,26.7,29.88,SSE,157,6.0,8.2,39,0.00,,---,0.00,VWS V14.00,2013-11-29 19:07:00,
2013-11-29 13:12:00,51.3,27.2,29.88,South,181,6.0,8.2,39,0.00,,---,0.00,VWS V14.00,2013-11-29 19:12:00,
2013-11-29 13:17:00,50.9,26.8,29.88,SSE,154,8.1,10.7,39,0.00,,---,0.00,VWS V14.00,2013-11-29 19:17:00,
2013-11-29 13:22:00,51.6,26.9,29.88,SE,129,4.7,7.4,38,0.00,,---,0.00,VWS V14.00,2013-11-29 19:22:00,
2013-11-29 13:27:00,51.8,27.0,29.88,SE,142,3.4,6.6,38,0.00,,---,0.00,VWS V14.00,2013-11-29 19:27:00,
2013-11-29 13:32:00,51.8,27.0,29.88,SSE,158,6.0,8.2,38,0.00,,---,0.00,VWS V14.00,2013-11-29 19:32:00,
2013-11-29 13:37:00,51.6,26.2,29.88,SSE,147,6.0,9.9,37,0.00,,---,0.00,VWS V14.00,2013-11-29 19:37:00,
2013-11-29 13:42:00,51.6,26.9,29.88,South,171,0.0,1.0,38,0.00,,---,0.00,VWS V14.00,2013-11-29 19:42:00,
2013-11-29 13:47:00,52.0,27.2,29.88,ENE,70,5.4,7.4,38,0.00,,---,0.00,VWS V14.00,2013-11-29 19:47:00,
2013-11-29 13:52:00,51.6,25.6,29.88,NE,55,4.7,6.6,36,0.00,,---,0.00,VWS V14.00,2013-11-29 19:52:00,
2013-11-29 13:56:00,51.6,26.2,29.85,East,101,4.7,6.6,37,0.00,,---,0.00,VWS V14.00,2013-11-29 19:56:00,
2013-11-29 14:01:00,51.4,26.0,29.85,East,89,3.4,5.8,37,0.00,,---,0.00,VWS V14.00,2013-11-29 20:01:00,
2013-11-29 14:06:00,51.6,26.2,29.85,ESE,119,4.7,7.4,37,0.00,,---,0.00,VWS V14.00,2013-11-29 20:06:00,
2013-11-29 14:11:00,51.8,26.4,29.85,SE,132,3.4,5.8,37,0.00,,---,0.00,VWS V14.00,2013-11-29 20:11:00,
2013-11-29 14:16:00,52.3,27.5,29.85,SSE,155,5.4,7.4,38,0.00,,---,0.00,VWS V14.00,2013-11-29 20:16:00,
2013-11-29 14:21:00,52.5,27.7,29.85,South,178,0.0,1.0,38,0.00,,---,0.00,VWS V14.00,2013-11-29 20:21:00,
2013-11-29 14:26:00,52.9,27.3,29.85,ESE,118,4.0,7.4,37,0.00,,---,0.00,VWS V14.00,2013-11-29 20:26:00,
2013-11-29 14:31:00,52.7,27.2,29.85,SE,143,8.1,10.7,37,0.00,,---,0.00,VWS V14.00,2013-11-29 20:31:00,
2013-11-29 14:36:00,52.3,26.2,29.85,SSE,158,4.7,8.2,36,0.00,,---,0.00,VWS V14.00,2013-11-29 20:36:00,
2013-11-29 14:41:00,52.3,26.2,29.85,ESE,102,3.4,5.0,36,0.00,,---,0.00,VWS V14.00,2013-11-29 20:41:00,
2013-11-29 14:46:00,52.3,26.2,29.85,SSE,154,8.7,11.5,36,0.00,,---,0.00,VWS V14.00,2013-11-29 20:46:00,
2013-11-29 14:51:00,52.3,25.5,29.85,ENE,63,4.0,5.8,35,0.00,,---,0.00,VWS V14.00,2013-11-29 20:51:00,
2013-11-29 14:56:00,52.0,25.2,29.85,SE,142,4.7,7.4,35,0.00,,---,0.00,VWS V14.00,2013-11-29 20:56:00,
2013-11-29 15:01:00,51.8,25.0,29.85,ESE,108,4.7,8.2,35,0.00,,---,0.00,VWS V14.00,2013-11-29 21:01:00,
2013-11-29 15:06:00,51.6,25.6,29.85,ESE,119,4.0,6.6,36,0.00,,---,0.00,VWS V14.00,2013-11-29 21:06:00,
2013-11-29 15:11:00,51.1,25.1,29.85,ESE,116,0.0,1.0,36,0.00,,---,0.00,VWS V14.00,2013-11-29 21:11:00,
2013-11-29 15:16:00,50.9,24.9,29.85,SE,142,0.0,1.0,36,0.00,,---,0.00,VWS V14.00,2013-11-29 21:16:00,
2013-11-29 15:21:00,50.5,24.6,29.85,SE,142,4.0,5.8,36,0.00,,---,0.00,VWS V14.00,2013-11-29 21:21:00,
2013-11-29 15:26:00,50.4,25.1,29.85,SE,143,4.0,6.6,37,0.00,,---,0.00,VWS V14.00,2013-11-29 21:26:00,
2013-11-29 15:31:00,50.4,25.1,29.85,SE,143,0.0,1.0,37,0.00,,---,0.00,VWS V14.00,2013-11-29 21:31:00,
2013-11-29 15:36:00,50.2,24.9,29.85,East,95,6.0,8.2,37,0.00,,---,0.00,VWS V14.00,2013-11-29 21:36:00,
2013-11-29 15:41:00,50.0,24.8,29.85,ESE,118,4.7,6.6,37,0.00,,---,0.00,VWS V14.00,2013-11-29 21:41:00,
2013-11-29 15:46:00,49.8,25.2,29.85,East,94,4.0,6.6,38,0.00,,---,0.00,VWS V14.00,2013-11-29 21:46:00,
2013-11-29 15:51:00,49.5,24.9,29.85,ESE,104,3.4,5.0,38,0.00,,---,0.00,VWS V14.00,2013-11-29 21:51:00,
2013-11-29 15:56:00,49.1,25.2,29.85,ESE,119,3.4,5.0,39,0.00,,---,0.00,VWS V14.00,2013-11-29 21:56:00,
2013-11-29 16:01:00,48.9,25.1,29.85,ESE,118,0.0,1.0,39,0.00,,---,0.00,VWS V14.00,2013-11-29 22:01:00,
2013-11-29 16:06:00,48.7,24.9,29.85,SSE,147,4.7,6.6,39,0.00,,---,0.00,VWS V14.00,2013-11-29 22:06:00,
2013-11-29 16:11:00,48.6,24.7,29.85,ESE,119,4.0,5.8,39,0.00,,---,0.00,VWS V14.00,2013-11-29 22:11:00,
2013-11-29 16:16:00,48.2,24.4,29.85,ESE,119,0.0,5.0,39,0.00,,---,0.00,VWS V14.00,2013-11-29 22:16:00,
2013-11-29 16:21:00,47.8,24.1,29.85,ESE,119,0.0,1.0,39,0.00,,---,0.00,VWS V14.00,2013-11-29 22:21:00,
2013-11-29 16:26:00,47.5,23.8,29.85,ESE,119,0.0,1.0,39,0.00,,---,0.00,VWS V14.00,2013-11-29 22:26:00,
2013-11-29 16:31:00,47.1,23.5,29.85,ESE,119,3.4,5.0,39,0.00,,---,0.00,VWS V14.00,2013-11-29 22:31:00,
2013-11-29 16:36:00,46.8,23.1,29.85,ESE,119,0.0,1.0,39,0.00,,---,0.00,VWS V14.00,2013-11-29 22:36:00,
2013-11-29 16:41:00,46.2,23.2,29.85,ESE,119,0.0,1.0,40,0.00,,---,0.00,VWS V14.00,2013-11-29 22:41:00,
2013-11-29 16:46:00,45.0,22.1,29.85,ESE,119,0.0,1.0,40,0.00,,---,0.00,VWS V14.00,2013-11-29 22:46:00,
2013-11-29 16:51:00,44.4,21.6,29.85,ESE,119,0.0,1.0,40,0.00,,---,0.00,VWS V14.00,2013-11-29 22:51:00,
2013-11-29 16:56:00,44.2,21.5,29.85,ESE,119,0.0,1.0,40,0.00,,---,0.00,VWS V14.00,2013-11-29 22:56:00,
2013-11-29 17:01:00,43.0,20.3,29.85,ESE,119,0.0,1.0,40,0.00,,---,0.00,VWS V14.00,2013-11-29 23:01:00,
2013-11-29 17:06:00,42.8,20.8,29.85,ESE,119,0.0,1.0,41,0.00,,---,0.00,VWS V14.00,2013-11-29 23:06:00,
2013-11-29 17:11:00,42.4,21.0,29.83,ESE,119,0.0,1.0,42,0.00,,---,0.00,VWS V14.00,2013-11-29 23:11:00,
2013-11-29 17:16:00,42.1,20.7,29.83,ESE,119,0.0,1.0,42,0.00,,---,0.00,VWS V14.00,2013-11-29 23:16:00,
2013-11-29 17:21:00,41.7,20.3,29.83,ESE,119,0.0,1.0,42,0.00,,---,0.00,VWS V14.00,2013-11-29 23:21:00,
2013-11-29 17:26:00,41.4,20.6,29.83,ESE,119,0.0,1.0,43,0.00,,---,0.00,VWS V14.00,2013-11-29 23:26:00,
2013-11-29 17:31:00,40.6,19.9,29.83,ESE,119,0.0,1.0,43,0.00,,---,0.00,VWS V14.00,2013-11-29 23:31:00,
2013-11-29 17:36:00,40.3,19.6,29.83,ESE,119,0.0,1.0,43,0.00,,---,0.00,VWS V14.00,2013-11-29 23:36:00,
2013-11-29 17:41:00,39.7,19.1,29.83,ESE,119,0.0,1.0,43,0.00,,---,0.00,VWS V14.00,2013-11-29 23:41:00,
2013-11-29 17:46:00,39.2,18.6,29.83,ESE,119,0.0,1.0,43,0.00,,---,0.00,VWS V14.00,2013-11-29 23:46:00,
2013-11-29 17:51:00,38.7,18.6,29.83,ESE,119,0.0,1.0,44,0.00,,---,0.00,VWS V14.00,2013-11-29 23:51:00,
2013-11-29 17:56:00,38.3,18.3,29.83,ESE,119,0.0,1.0,44,0.00,,---,0.00,VWS V14.00,2013-11-29 23:56:00,
2013-11-29 18:01:00,38.1,18.1,29.83,ESE,119,0.0,1.0,44,0.00,,---,0.00,VWS V14.00,2013-11-30 00:01:00,
2013-11-29 18:06:00,37.6,18.2,29.83,ESE,119,0.0,1.0,45,0.00,,---,0.00,VWS V14.00,2013-11-30 00:06:00,
2013-11-29 18:11:00,37.2,17.9,29.83,ESE,119,0.0,1.0,45,0.00,,---,0.00,VWS V14.00,2013-11-30 00:11:00,
2013-11-29 18:16:00,37.0,17.7,29.83,ESE,119,0.0,1.0,45,0.00,,---,0.00,VWS V14.00,2013-11-30 00:16:00,
2013-11-29 18:21:00,36.7,17.9,29.83,ESE,119,0.0,1.0,46,0.00,,---,0.00,VWS V14.00,2013-11-30 00:21:00,
2013-11-29 18:26:00,36.5,17.7,29.83,ESE,119,0.0,1.0,46,0.00,,---,0.00,VWS V14.00,2013-11-30 00:26:00,
2013-11-29 18:31:00,36.1,17.4,29.83,ESE,119,0.0,1.0,46,0.00,,---,0.00,VWS V14.00,2013-11-30 00:31:00,
2013-11-29 18:36:00,36.0,17.2,29.83,ESE,119,0.0,1.0,46,0.00,,---,0.00,VWS V14.00,2013-11-30 00:36:00,
2013-11-29 18:41:00,36.3,18.5,29.83,ESE,119,4.0,5.8,48,0.00,,---,0.00,VWS V14.00,2013-11-30 00:41:00,
2013-11-29 18:46:00,36.7,19.8,29.83,ESE,118,3.4,5.0,50,0.00,,---,0.00,VWS V14.00,2013-11-30 00:46:00,
2013-11-29 18:51:00,36.7,19.8,29.83,ESE,119,0.0,1.0,50,0.00,,---,0.00,VWS V14.00,2013-11-30 00:51:00,
2013-11-29 18:56:00,36.5,19.2,29.83,ESE,119,0.0,1.0,49,0.00,,---,0.00,VWS V14.00,2013-11-30 00:56:00,
2013-11-29 19:01:00,36.3,19.0,29.83,ESE,119,0.0,1.0,49,0.00,,---,0.00,VWS V14.00,2013-11-30 01:01:00,
2013-11-29 19:06:00,36.3,19.5,29.83,ESE,119,0.0,1.0,50,0.00,,---,0.00,VWS V14.00,2013-11-30 01:06:00,
2013-11-29 19:11:00,36.1,19.3,29.83,ESE,117,4.0,5.8,50,0.00,,---,0.00,VWS V14.00,2013-11-30 01:11:00,
2013-11-29 19:16:00,36.3,19.9,29.83,ESE,120,4.0,5.8,51,0.00,,---,0.00,VWS V14.00,2013-11-30 01:16:00,
2013-11-29 19:21:00,37.0,20.6,29.83,ESE,120,3.4,5.0,51,0.00,,---,0.00,VWS V14.00,2013-11-30 01:21:00,
2013-11-29 19:26:00,37.4,20.9,29.83,ESE,113,4.0,5.8,51,0.00,,---,0.00,VWS V14.00,2013-11-30 01:26:00,
2013-11-29 19:31:00,37.6,21.1,29.83,SE,133,3.4,5.8,51,0.00,,---,0.00,VWS V14.00,2013-11-30 01:31:00,
2013-11-29 19:36:00,37.9,21.4,29.83,SE,142,3.4,5.8,51,0.00,,---,0.00,VWS V14.00,2013-11-30 01:36:00,
2013-11-29 19:41:00,38.3,21.8,29.83,SE,138,4.0,5.8,51,0.00,,---,0.00,VWS V14.00,2013-11-30 01:41:00,
2013-11-29 19:46:00,38.7,22.1,29.83,SE,138,4.0,5.8,51,0.00,,---,0.00,VWS V14.00,2013-11-30 01:46:00,
2013-11-29 19:51:00,38.8,22.3,29.83,SE,125,4.0,5.8,51,0.00,,---,0.00,VWS V14.00,2013-11-30 01:51:00,
2013-11-29 19:56:00,38.8,22.3,29.83,SE,137,4.0,5.8,51,0.00,,---,0.00,VWS V14.00,2013-11-30 01:56:00,
2013-11-29 20:01:00,39.0,22.0,29.83,SE,146,5.4,7.4,50,0.00,,---,0.00,VWS V14.00,2013-11-30 02:01:00,
2013-11-29 20:06:00,38.8,21.8,29.83,SSE,152,4.0,5.8,50,0.00,,---,0.00,VWS V14.00,2013-11-30 02:06:00,
2013-11-29 20:11:00,38.3,20.8,29.83,SSE,152,0.0,5.0,49,0.00,,---,0.00,VWS V14.00,2013-11-30 02:11:00,
2013-11-29 20:16:00,38.1,21.1,29.83,ESE,112,4.0,5.8,50,0.00,,---,0.00,VWS V14.00,2013-11-30 02:16:00,
2013-11-29 20:21:00,38.3,21.3,29.83,ESE,117,0.0,1.0,50,0.00,,---,0.00,VWS V14.00,2013-11-30 02:21:00,
2013-11-29 20:26:00,38.5,21.5,29.83,ESE,117,0.0,1.0,50,0.00,,---,0.00,VWS V14.00,2013-11-30 02:26:00,
2013-11-29 20:31:00,38.5,21.5,29.83,SE,129,0.0,1.0,50,0.00,,---,0.00,VWS V14.00,2013-11-30 02:31:00,
2013-11-29 20:36:00,38.5,21.5,29.83,SE,129,0.0,1.0,50,0.00,,---,0.00,VWS V14.00,2013-11-30 02:36:00,
2013-11-29 20:42:00,38.5,21.5,29.80,SE,146,3.4,5.8,50,0.00,,---,0.00,VWS V14.00,2013-11-30 02:42:00,
2013-11-29 20:47:00,38.1,21.1,29.80,SE,146,4.0,5.8,50,0.00,,---,0.00,VWS V14.00,2013-11-30 02:47:00,
2013-11-29 20:52:00,37.9,21.0,29.80,SE,146,3.4,5.0,50,0.00,,---,0.00,VWS V14.00,2013-11-30 02:52:00,
2013-11-29 20:57:00,37.2,20.3,29.83,SE,146,3.4,5.8,50,0.00,,---,0.00,VWS V14.00,2013-11-30 02:57:00,
2013-11-29 21:02:00,36.7,19.8,29.83,SE,146,3.4,5.0,50,0.00,,---,0.00,VWS V14.00,2013-11-30 03:02:00,
2013-11-29 21:07:00,36.7,20.3,29.83,SE,146,0.0,1.0,51,0.00,,---,0.00,VWS V14.00,2013-11-30 03:07:00,
2013-11-29 21:12:00,36.9,20.4,29.83,SE,146,0.0,1.0,51,0.00,,---,0.00,VWS V14.00,2013-11-30 03:12:00,
2013-11-29 21:17:00,36.7,20.3,29.83,SE,146,0.0,1.0,51,0.00,,---,0.00,VWS V14.00,2013-11-30 03:17:00,
2013-11-29 21:22:00,36.1,19.8,29.83,SE,145,0.0,1.0,51,0.00,,---,0.00,VWS V14.00,2013-11-30 03:22:00,
2013-11-29 21:27:00,35.8,19.4,29.83,SE,146,0.0,1.0,51,0.00,,---,0.00,VWS V14.00,2013-11-30 03:27:00,
2013-11-29 21:32:00,35.4,19.6,29.83,SE,146,0.0,1.0,52,0.00,,---,0.00,VWS V14.00,2013-11-30 03:32:00,
2013-11-29 21:37:00,35.1,19.2,29.83,SE,146,0.0,1.0,52,0.00,,---,0.00,VWS V14.00,2013-11-30 03:37:00,
2013-11-29 21:42:00,34.9,19.1,29.83,SE,146,0.0,1.0,52,0.00,,---,0.00,VWS V14.00,2013-11-30 03:42:00,
2013-11-29 21:47:00,34.7,18.9,29.83,SE,146,0.0,1.0,52,0.00,,---,0.00,VWS V14.00,2013-11-30 03:47:00,
2013-11-29 21:52:00,34.5,18.7,29.83,SE,146,0.0,1.0,52,0.00,,---,0.00,VWS V14.00,2013-11-30 03:52:00,
2013-11-29 21:57:00,34.2,18.4,29.83,SE,146,0.0,1.0,52,0.00,,---,0.00,VWS V14.00,2013-11-30 03:57:00,
2013-11-29 22:02:00,34.0,18.7,29.83,SE,146,0.0,1.0,53,0.00,,---,0.00,VWS V14.00,2013-11-30 04:02:00,
2013-11-29 22:07:00,33.8,18.5,29.83,SE,146,0.0,1.0,53,0.00,,---,0.00,VWS V14.00,2013-11-30 04:07:00,
2013-11-29 22:12:00,33.6,18.3,29.83,SE,146,0.0,1.0,53,0.00,,---,0.00,VWS V14.00,2013-11-30 04:12:00,
2013-11-29 22:17:00,33.1,17.8,29.83,SE,146,0.0,1.0,53,0.00,,---,0.00,VWS V14.00,2013-11-30 04:17:00,
2013-11-29 22:22:00,32.9,18.1,29.83,SE,146,0.0,1.0,54,0.00,,---,0.00,VWS V14.00,2013-11-30 04:22:00,
2013-11-29 22:27:00,32.5,17.8,29.83,SE,146,0.0,1.0,54,0.00,,---,0.00,VWS V14.00,2013-11-30 04:27:00,
2013-11-29 22:32:00,32.5,17.8,29.83,SE,146,0.0,1.0,54,0.00,,---,0.00,VWS V14.00,2013-11-30 04:32:00,
2013-11-29 22:37:00,32.4,17.6,29.83,SE,146,0.0,1.0,54,0.00,,---,0.00,VWS V14.00,2013-11-30 04:37:00,
2013-11-29 22:42:00,32.2,17.4,29.83,SE,146,0.0,1.0,54,0.00,,---,0.00,VWS V14.00,2013-11-30 04:42:00,
2013-11-29 22:47:00,32.4,18.0,29.83,SE,146,0.0,1.0,55,0.00,,---,0.00,VWS V14.00,2013-11-30 04:47:00,
2013-11-29 22:52:00,33.1,19.1,29.83,SE,146,0.0,1.0,56,0.00,,---,0.00,VWS V14.00,2013-11-30 04:52:00,
2013-11-29 22:57:00,33.6,20.4,29.83,SE,146,4.0,5.8,58,0.00,,---,0.00,VWS V14.00,2013-11-30 04:57:00,
2013-11-29 23:01:00,34.0,20.8,29.83,SE,138,5.4,7.4,58,0.00,,---,0.00,VWS V14.00,2013-11-30 05:01:00,
2013-11-29 23:02:00,34.0,20.8,29.83,SE,138,4.7,6.6,58,0.00,,---,0.00,VWS V14.00,2013-11-30 05:02:00,
2013-11-29 23:07:00,34.2,20.9,29.83,SE,142,4.7,7.4,58,0.00,,---,0.00,VWS V14.00,2013-11-30 05:07:00,
2013-11-29 23:12:00,34.7,21.0,29.83,SE,142,5.4,8.2,57,0.00,,---,0.00,VWS V14.00,2013-11-30 05:12:00,
2013-11-29 23:17:00,34.7,21.0,29.83,SE,139,5.4,7.4,57,0.00,,---,0.00,VWS V14.00,2013-11-30 05:17:00,
2013-11-29 23:22:00,34.7,21.0,29.83,SE,143,4.0,6.6,57,0.00,,---,0.00,VWS V14.00,2013-11-30 05:22:00,
2013-11-29 23:27:00,34.0,20.0,29.83,SE,143,3.4,5.8,56,0.00,,---,0.00,VWS V14.00,2013-11-30 05:27:00,
2013-11-29 23:32:00,33.4,19.4,29.83,SE,143,3.4,5.0,56,0.00,,---,0.00,VWS V14.00,2013-11-30 05:32:00,
2013-11-29 23:37:00,32.7,18.8,29.80,SE,143,3.4,5.0,56,0.00,,---,0.00,VWS V14.00,2013-11-30 05:37:00,
2013-11-29 23:42:00,32.5,18.6,29.80,SE,146,4.7,6.6,56,0.00,,---,0.00,VWS V14.00,2013-11-30 05:42:00,
2013-11-29 23:47:00,32.7,18.8,29.80,SSE,156,6.0,8.2,56,0.00,,---,0.00,VWS V14.00,2013-11-30 05:47:00,
2013-11-29 23:52:00,33.3,19.7,29.80,SSE,155,4.7,6.6,57,0.00,,---,0.00,VWS V14.00,2013-11-30 05:52:00,
2013-11-29 23:57:00,33.3,19.7,29.80,SE,146,5.4,7.4,57,0.00,,---,0.00,VWS V14.00,2013-11-30 05:57:00,